This is the latest recevied weather packets stored in our database for station/object W1RCY. If no packets are shown the sender has not sent any weather packets the latest 10 day(s).
| Time | Temp. | Humidity | Pressure | Rain* | Wind** | Luminosity | Snow |
|---|---|---|---|---|---|---|---|
| 1777982107 | 14.44° C | 69% | 1006.8 hPa | 0 mm | - | 163 W/m² | - |
| 1777981805 | 13.89° C | 69% | 1006.7 hPa | 0 mm | - | 156 W/m² | - |
| 1777981501 | 13.89° C | 69% | 1006.8 hPa | 0 mm | - | 160 W/m² | - |
| 1777981198 | 13.89° C | 69% | 1006.8 hPa | 0 mm | - | 100 W/m² | - |
| 1777980894 | 13.89° C | 69% | 1007 hPa | 0 mm | - | 170 W/m² | - |
| 1777980590 | 13.89° C | 69% | 1006.9 hPa | 0 mm | - | 196 W/m² | - |
| 1777980287 | 13.89° C | 70% | 1007.1 hPa | 0 mm | - | 195 W/m² | - |
| 1777979984 | 13.33° C | 71% | 1007.1 hPa | 0 mm | - | 180 W/m² | - |
| 1777979678 | 13.33° C | 71% | 1006.9 hPa | 0 mm | - | 166 W/m² | - |
| 1777979375 | 12.78° C | 71% | 1007.2 hPa | 0 mm | - | 145 W/m² | - |
| 1777979072 | 12.78° C | 72% | 1007.1 hPa | 0 mm | - | 138 W/m² | - |
| 1777978769 | 12.78° C | 73% | 1006.9 hPa | 0 mm | - | 122 W/m² | - |
| 1777978465 | 12.22° C | 74% | 1007.2 hPa | 0 mm | - | 104 W/m² | - |
| 1777978161 | 11.11° C | 77% | 1006.9 hPa | 0 mm | - | 90 W/m² | - |
| 1777977859 | 10.56° C | 78% | 1007.2 hPa | 0 mm | - | 72 W/m² | - |
| 1777977555 | 10.56° C | 78% | 1007.1 hPa | 0 mm | - | 35 W/m² | - |
| 1777977253 | 10.56° C | 77% | 1007.1 hPa | 0 mm | - | 34 W/m² | - |
| 1777976949 | 10.56° C | 77% | 1007.2 hPa | 0 mm | - | 34 W/m² | - |
| 1777976647 | 10.56° C | 79% | 1007.1 hPa | 0 mm | - | 34 W/m² | - |
| 1777976343 | 10° C | 80% | 1007.3 hPa | 0 mm | - | 30 W/m² | - |
| 1777976037 | 9.44° C | 80% | 1007.1 hPa | 0 mm | - | 25 W/m² | - |
| 1777975734 | 9.44° C | 80% | 1007.2 hPa | 0 mm | - | 21 W/m² | - |
| 1777975430 | 9.44° C | 80% | 1007 hPa | 0 mm | - | 15 W/m² | - |
| 1777975126 | 10° C | 79% | 1007 hPa | 0 mm | - | 10 W/m² | - |
| 1777974824 | 10° C | 79% | 1007.2 hPa | 0 mm | - | 6 W/m² | - |
* Rain latest hour (hover to see other rain measurements)
** Current wind speed in m/s (hover to see current wind gust speed)